New Richmond, WI

3:18 AM CST on January 19, 2017 (GMT -0600)
New Richmond Municipal

Weather History for KRNH - July, 2013

Change the Weather History Date:

Sunday, July 14, 2013

  Actual Average (KSTP) Record (KSTP)
Temperature  
Mean Temperature 76 °F -  
Max Temperature 84 °F 80 °F 96 °F (2006)
Min Temperature 68 °F 62 °F 55 °F (2014)
Cooling Degree Days 10    
Growing Degree Days 26 (Base 50)    
Moisture  
Dew Point 63 °F    
Average Humidity 68    
Maximum Humidity 86    
Minimum Humidity 46    
Precipitation  
Precipitation 0.00 in - - ()
Sea Level Pressure  
Sea Level Pressure 30.16 in    
Wind  
Wind Speed 6 mph (SSE)    
Max Wind Speed 13 mph    
Max Gust Speed 20 mph    
Visibility 10 miles    
Events Rain    
Averages and records for this station are not official NWS values.
T = Trace of Precipitation, MM = Missing Value Source: NWS Daily Summary

Daily Weather History Graph

Daily Weather History Graph

Search for Another Location

Airport or City:

Trip Planner

Search our weather history database for the weather conditions in past years. The results will help you decide how hot, cold, wet, or windy it might be!

Date:

Astronomy

Jul. 14, 2013 Rise Set
Actual Time 5:36 AM CDT 8:55 PM CDT
Civil Twilight 5:00 AM CDT 9:31 PM CDT
Nautical Twilight 4:13 AM CDT 10:18 PM CDT
Astronomical Twilight 3:14 AM CDT 11:16 PM CDT
Moon 12:14 PM CDT (7/14) 11:46 PM CDT (7/14)
Length of Visible Light 16h 30m
Length of Day
15h 18m
Waxing Crescent, 35% of the Moon is Illuminated
Jul 14
Waxing Crescent
Jul 15
First Quarter
Jul 22
Full
Jul 29
Last Quarter
Aug 6
New

Hourly Weather History & Observations

Time (CDT) Temp. Heat Index Dew Point Humidity Pressure Visibility Wind Dir Wind Speed Gust Speed Precip Events Conditions
12:15 AM 68.0 °F - 61.0 °F 78% 30.12 in 10.0 mi SE 4.6 mph - N/A   Overcast
12:35 AM 68.2 °F - 61.0 °F 78% 30.12 in 10.0 mi SE 4.6 mph - N/A   Overcast
12:55 AM 68.5 °F - 61.0 °F 77% 30.12 in 10.0 mi SSE 3.5 mph - N/A   Overcast
1:15 AM 68.5 °F - 61.3 °F 78% 30.12 in 10.0 mi SE 4.6 mph - N/A   Overcast
1:35 AM 68.2 °F - 61.7 °F 80% 30.12 in 10.0 mi SE 3.5 mph - N/A   Overcast
1:55 AM 68.9 °F - 61.7 °F 78% 30.12 in 10.0 mi SSE 4.6 mph - N/A   Overcast
2:15 AM 68.9 °F - 61.7 °F 78% 30.12 in 10.0 mi SSE 4.6 mph - N/A   Overcast
2:35 AM 68.9 °F - 62.1 °F 79% 30.12 in 10.0 mi SSE 4.6 mph - N/A   Overcast
2:55 AM 69.1 °F - 62.2 °F 79% 30.11 in 10.0 mi SSE 4.6 mph - N/A   Overcast
3:15 AM 69.1 °F - 62.4 °F 79% 30.11 in 10.0 mi SSE 5.8 mph - N/A   Overcast
3:35 AM 69.4 °F - 62.6 °F 79% 30.11 in 10.0 mi SE 4.6 mph - N/A   Overcast
3:55 AM 68.9 °F - 63.0 °F 81% 30.11 in 10.0 mi SE 5.8 mph - N/A Rain Light Rain
4:15 AM 69.1 °F - 62.6 °F 80% 30.11 in 10.0 mi SE 4.6 mph - N/A   Overcast
4:35 AM 68.7 °F - 62.6 °F 81% 30.11 in 10.0 mi SE 4.6 mph - N/A   Mostly Cloudy
4:55 AM 68.5 °F - 62.6 °F 81% 30.11 in 10.0 mi SE 4.6 mph - N/A   Mostly Cloudy
5:15 AM 68.5 °F - 62.1 °F 80% 30.12 in 10.0 mi SE 4.6 mph - N/A   Scattered Clouds
5:35 AM 69.1 °F - 61.7 °F 77% 30.12 in 10.0 mi SSE 5.8 mph - N/A   Mostly Cloudy
5:55 AM 69.3 °F - 61.3 °F 76% 30.12 in 10.0 mi SSE 8.1 mph - N/A   Scattered Clouds
6:15 AM 69.3 °F - 61.2 °F 75% 30.13 in 10.0 mi SSE 5.8 mph - N/A   Scattered Clouds
6:35 AM 69.8 °F - 61.0 °F 73% 30.14 in 10.0 mi SSE 4.6 mph - N/A   Mostly Cloudy
6:55 AM 69.8 °F - 61.0 °F 73% 30.13 in 10.0 mi SSE 5.8 mph - N/A   Overcast
7:15 AM 70.0 °F - 60.6 °F 72% 30.14 in 10.0 mi SSE 6.9 mph - N/A   Overcast
7:35 AM 70.0 °F - 60.8 °F 73% 30.15 in 10.0 mi South 6.9 mph - N/A   Overcast
7:55 AM 70.0 °F - 60.8 °F 73% 30.16 in 10.0 mi SSE 5.8 mph - N/A   Overcast
8:15 AM 70.0 °F - 60.8 °F 73% 30.16 in 10.0 mi SSE 5.8 mph - N/A   Overcast
8:35 AM 70.0 °F - 61.0 °F 73% 30.16 in 10.0 mi South 6.9 mph - N/A   Overcast
8:55 AM 70.2 °F - 60.8 °F 72% 30.17 in 10.0 mi South 6.9 mph - N/A   Mostly Cloudy
9:15 AM 70.5 °F - 61.5 °F 73% 30.17 in 10.0 mi South 6.9 mph - N/A   Mostly Cloudy
9:35 AM 71.1 °F - 61.5 °F 72% 30.18 in 10.0 mi South 5.8 mph - N/A   Scattered Clouds
9:55 AM 71.6 °F - 62.1 °F 72% 30.19 in 10.0 mi South 8.1 mph - N/A   Clear
10:15 AM 73.9 °F - 62.4 °F 67% 30.19 in 10.0 mi SSW 6.9 mph - N/A   Clear
10:35 AM 77.9 °F - 62.8 °F 60% 30.19 in 10.0 mi SW 9.2 mph - N/A   Clear
10:55 AM 78.1 °F - 62.6 °F 59% 30.18 in 10.0 mi SSW 5.8 mph - N/A   Clear
11:15 AM 78.6 °F - 61.5 °F 56% 30.18 in 10.0 mi SSW 9.2 mph - N/A   Clear
11:35 AM 78.6 °F - 61.9 °F 56% 30.18 in 10.0 mi SSW 6.9 mph - N/A   Clear
11:55 AM 79.9 °F - 61.3 °F 53% 30.18 in 10.0 mi South 10.4 mph - N/A   Clear
12:15 PM 79.9 °F - 62.1 °F 54% 30.18 in 10.0 mi South 8.1 mph - N/A   Clear
12:35 PM 79.3 °F - 62.4 °F 56% 30.18 in 10.0 mi South 12.7 mph 17.3 mph N/A   Clear
12:55 PM 80.1 °F 81.4 °F 62.6 °F 55% 30.18 in 10.0 mi SSW 9.2 mph - N/A   Clear
1:15 PM 81.1 °F 82.7 °F 64.0 °F 56% 30.17 in 10.0 mi SSE 8.1 mph - N/A   Clear
1:35 PM 81.9 °F 82.9 °F 62.4 °F 52% 30.18 in 10.0 mi South 12.7 mph - N/A   Clear
1:55 PM 81.5 °F 82.5 °F 62.1 °F 52% 30.18 in 10.0 mi South 9.2 mph 16.1 mph N/A   Scattered Clouds
2:15 PM 82.4 °F 83.0 °F 61.7 °F 49% 30.17 in 10.0 mi South 6.9 mph 17.3 mph N/A   Scattered Clouds
2:35 PM 82.6 °F 83.4 °F 62.1 °F 50% 30.17 in 10.0 mi SSE 9.2 mph - N/A   Clear
2:55 PM 83.1 °F 83.9 °F 62.2 °F 49% 30.17 in 10.0 mi South 9.2 mph - N/A   Scattered Clouds
3:15 PM 82.2 °F 83.2 °F 62.2 °F 51% 30.16 in 10.0 mi SSE 11.5 mph 19.6 mph N/A   Scattered Clouds
3:35 PM 83.5 °F 83.7 °F 60.8 °F 46% 30.17 in 10.0 mi South 9.2 mph 18.4 mph N/A   Scattered Clouds
3:55 PM 83.7 °F 83.9 °F 60.6 °F 46% 30.17 in 10.0 mi SSW 8.1 mph 17.3 mph N/A   Clear
4:15 PM 83.7 °F 84.1 °F 61.3 °F 47% 30.17 in 10.0 mi SSW 9.2 mph - N/A   Scattered Clouds
4:35 PM 83.1 °F 83.7 °F 61.7 °F 48% 30.17 in 10.0 mi South 8.1 mph - N/A   Scattered Clouds
4:55 PM 83.5 °F 84.5 °F 63.3 °F 50% 30.16 in 10.0 mi SSE 8.1 mph - N/A   Scattered Clouds
5:15 PM 81.7 °F 82.6 °F 62.1 °F 51% 30.16 in 10.0 mi South 6.9 mph - N/A   Scattered Clouds
5:35 PM 80.6 °F 81.9 °F 63.3 °F 55% 30.16 in 10.0 mi SSE 8.1 mph - N/A   Scattered Clouds
5:55 PM 81.0 °F 82.3 °F 63.3 °F 55% 30.16 in 10.0 mi SSE 5.8 mph - N/A   Scattered Clouds
6:15 PM 81.1 °F 82.3 °F 62.4 °F 53% 30.16 in 10.0 mi South 9.2 mph - N/A   Scattered Clouds
6:35 PM 80.6 °F 81.9 °F 63.0 °F 55% 30.16 in 10.0 mi South 5.8 mph - N/A   Clear
6:55 PM 79.7 °F - 64.0 °F 59% 30.16 in 10.0 mi South 6.9 mph - N/A   Clear
7:15 PM 79.7 °F - 63.9 °F 58% 30.17 in 10.0 mi SSE 4.6 mph - N/A   Clear
7:35 PM 78.4 °F - 64.6 °F 62% 30.17 in 10.0 mi SSE 3.5 mph - N/A   Clear
7:55 PM 77.7 °F - 64.8 °F 64% 30.17 in 10.0 mi SSE 3.5 mph - N/A   Clear
8:15 PM 75.7 °F - 66.6 °F 73% 30.17 in 10.0 mi Calm Calm - N/A   Clear
8:35 PM 74.8 °F - 66.7 °F 76% 30.18 in 10.0 mi East 3.5 mph - N/A   Clear
8:55 PM 74.3 °F - 66.2 °F 76% 30.18 in 10.0 mi Calm Calm - N/A   Mostly Cloudy
9:15 PM 73.2 °F - 66.2 °F 79% 30.19 in 10.0 mi ESE 3.5 mph - N/A   Scattered Clouds
9:35 PM 72.3 °F - 66.2 °F 81% 30.19 in 10.0 mi East 4.6 mph - N/A   Clear
9:55 PM 71.8 °F - 65.5 °F 80% 30.20 in 10.0 mi SE 3.5 mph - N/A   Clear
10:15 PM 70.7 °F - 65.3 °F 83% 30.20 in 10.0 mi ESE 3.5 mph - N/A   Clear
10:35 PM 70.7 °F - 65.5 °F 83% 30.20 in 10.0 mi Calm Calm - N/A   Clear
10:55 PM 70.7 °F - 65.3 °F 83% 30.21 in 10.0 mi Calm Calm - N/A   Clear
11:15 PM 70.5 °F - 65.7 °F 85% 30.21 in 10.0 mi Calm Calm - N/A   Mostly Cloudy
11:35 PM 70.7 °F - 65.3 °F 83% 30.21 in 10.0 mi Calm Calm - N/A   Mostly Cloudy
11:55 PM 69.8 °F - 65.5 °F 86% 30.22 in 10.0 mi Calm Calm - N/A   Scattered Clouds